Regional Weather Roundup
Issued by NWS State College, PA

Home | Current Version | Previous Version | Text Only | Print | Product List | Glossary Off
Versions: 1 2 3 4 5 6 7 8 9 10 11 12 13 14 15 16 17 18 19 20 21 22 23 24 25 26 27 28 29 30 31 32 33 34 35 36 37 38 39 40 41 42 43 44 45 46 47 48 49 50

000
ASUS41 KCTP 271810
RWRCTP

REGIONAL WEATHER ROUNDUP
NATIONAL WEATHER SERVICE STATE COLLEGE PA
200 PM EDT MON JUL 27 2015

Note: "fair" indicates few or no clouds below 12,000 feet with no
significant weather and/or obstructions to visibility.

* = STATION THAT DOES NOT REPORT PRECIPITATION /E.G. RAIN...SNOW...ETC/
    THUNDER OR FOG.

PAZ002>004-007>009-013>016-020>023-029>032-271900-
WESTERN PENNSYLVANIA

CITY           SKY/WX    TMP DP  RH WIND       PRES   REMARKS
ERIE           SUNNY     81  65  58 N13       30.03F
MEADVILLE      LGT RAIN  86  55  34 NE7       30.05F
FRANKLIN*      SUNNY     84  57  39 E6        30.06S
NEW CASTLE     FAIR      86  64  47 NE6       30.03F
BEAVER COUNTY  SUNNY     86  64  48 N3        30.03F
BUTLER*        MOSUNNY   82  64  54 E5        30.05S
PITTSBURGH INT MOSUNNY   87  64  46 NE5       30.02F
PITTSBURGH     PTSUNNY   82  61  48 VRB3      30.01F
INDIANA*       MOSUNNY   82  66  57 CALM      30.06F
LATROBE        MOSUNNY   84  66  54 CALM      30.03F
WASHINGTON CO* NOT AVBL
$$

PAZ004>006-010>012-017>019-024>028-033>037-041-042-045-046-049>053-271900-
CENTRAL PENNSYLVANIA

CITY           SKY/WX    TMP DP  RH WIND       PRES   REMARKS
BRADFORD       SUNNY     81  52  36 NE8       30.09F
DUBOIS         MOSUNNY   84  61  45 VRB3      30.05F
CLEARFIELD     SUNNY     82  65  56 SE7       30.05F
JOHNSTOWN      SUNNY     80  61  52 NE3       30.07F
ALTOONA        MOSUNNY   82  68  62 N5        30.04F
STATE COLLEGE  MOSUNNY   77  70  78 E6        30.06S
WILLIAMSPORT   MOSUNNY   83  67  58 CALM      30.00F
SELINSGROVE    CLOUDY    78  69  73 CALM      30.03F
FT INDIANTOWN  PTSUNNY   78  70  75 CALM      30.02F
CAPITAL CITY   PTSUNNY   81  69  67 E6        30.01F
HARRISBURG     CLOUDY    81  70  69 CALM      30.00F
YORK           PTSUNNY   82  71  69 CALM      30.02S
$$

PAZ038>040-043-044-047-048-054-055-060>062-067>071-271900-
EASTERN PENNSYLVANIA

CITY           SKY/WX    TMP DP  RH WIND       PRES   REMARKS
SCRANTON       MOSUNNY   80  68  66 CALM      30.03F
MOUNT POCONO   PTSUNNY   74  65  73 VRB6      30.08F
ALLENTOWN      PTSUNNY   83  69  62 CALM      30.01F
QUAKERTOWN*    PTCLDY    82  68  61 SE6       30.03
READING        PTSUNNY   84  69  60 CALM      30.00F
LANCASTER      CLOUDY    80  69  69 CALM      30.02F
COATESVILLE    CLOUDY    75  72  88 S3        30.04S
POTTSTOWN      LGT RAIN  80  71  74 VRB3      30.03F
BLUE BELL      PTSUNNY   82  72  69 CALM      30.01F
DOYLESTOWN     MOSUNNY   81  67  62 CALM      30.01F
WILLOW GROVE   NOT AVBL
NORTH PHILA    PTSUNNY   87  65  47 VRB5      30.01F
PHILADELPHIA   PTSUNNY   82  68  62 W3        30.01F
$$


USA.gov is the U.S. government's official web portal to all federal, state and local government web resources and services.